CW4038 Weather Reports


Display with metric or nautical units.
time (UTC)temp
F
wind
direction
speed
MPH
gust
MPH
rain 1hr
in
rain 24hr
in
rain mn
in
humidity
%
barometer
mb
20180719131058 77 82 0.0 0.0 0.00 0.00 0.00 46 1011.8
20180719130157 77 82 0.0 0.0 0.00 0.00 0.00 45 1011.5
20180719125256 78 82 0.0 0.0 0.00 0.00 0.00 46 1011.5
20180719124356 78 82 0.0 0.0 0.00 0.00 0.00 45 1011.5
20180719123455 78 82 0.0 0.0 0.00 0.00 0.00 46 1011.5
20180719122554 77 52 0.0 0.0 0.00 0.00 0.00 47 1011.5
20180719121653 77 52 0.0 0.0 0.00 0.00 0.00 51 1011.5
20180719120752 76 54 0.0 0.0 0.00 0.00 0.00 51 1011.1
20180719115851 77 52 0.0 0.0 0.00 0.00 0.00 51 1011.1
20180719114950 77 51 0.0 0.0 0.00 0.00 0.00 52 1011.1
20180719114050 77 53 0.0 0.0 0.00 0.00 0.00 51 1010.8
20180719113149 77 51 0.0 0.0 0.00 0.00 0.00 49 1010.8
20180719112248 76 51 0.0 0.0 0.00 0.00 0.00 49 1010.8
20180719111347 77 51 0.0 0.0 0.00 0.00 0.00 48 1010.8
20180719110447 77 51 0.0 0.0 0.00 0.00 0.00 46 1010.8
20180719105546 77 54 0.0 0.0 0.00 0.00 0.00 48 1010.8
20180719104645 77 53 0.0 0.0 0.00 0.00 0.00 48 1010.8
20180719103744 78 51 0.0 0.0 0.00 0.00 0.00 46 1010.8
20180719102843 78 51 0.0 0.0 0.00 0.00 0.00 45 1010.8
20180719101942 79 51 0.0 0.0 0.00 0.00 0.00 44 1011.2
20180719101042 79 51 0.0 0.0 0.00 0.00 0.00 44 1011.1
20180719100140 79 51 0.0 0.0 0.00 0.00 0.00 43 1011.1
20180719095240 79 53 0.0 0.0 0.00 0.00 0.00 44 1011.1
20180719094339 79 50 0.0 0.0 0.00 0.00 0.00 43 1011.1
20180719093451 80 50 0.0 0.0 0.00 0.00 0.00 41 1011.1
20180719092537 81 49 0.0 0.0 0.00 0.00 0.00 40 1011.1
20180719091637 82 49 0.0 0.0 0.00 0.00 0.00 38 1011.1
20180719090736 81 50 0.0 0.0 0.00 0.00 0.00 38 1011.1
20180719085836 81 50 0.0 0.0 0.00 0.00 0.00 39 1011.1
20180719084934 81 49 0.0 0.0 0.00 0.00 0.00 39 1011.1
20180719084034 81 50 0.0 0.0 0.00 0.00 0.00 41 1011.1
20180719083132 81 50 0.0 0.0 0.00 0.00 0.00 40 1011.1
20180719082231 81 50 0.0 0.0 0.00 0.00 0.00 41 1011.1
20180719081331 82 48 0.0 0.0 0.00 0.00 0.00 42 1011.2
20180719080430 83 48 0.0 0.0 0.00 0.00 0.00 43 1011.2
20180719075529 83 46 0.0 0.0 0.00 0.00 0.00 44 1011.2
20180719074628 83 47 0.0 1.0 0.00 0.00 0.00 46 1011.2
20180719073726 83 46 0.0 1.0 0.00 0.00 0.00 48 1011.2
20180719072825 83 46 0.0 1.0 0.00 0.00 0.00 47 1011.2
20180719071924 83 46 0.0 1.0 0.00 0.00 0.00 46 1011.2
20180719071022 83 44 0.0 0.0 0.00 0.00 0.00 49 1011.2
20180719070121 83 44 0.0 1.0 0.00 0.00 0.00 49 1011.2
20180719065220 83 44 0.0 1.0 0.00 0.00 0.00 47 1011.1
20180719064319 84 46 0.0 1.0 0.00 0.00 0.00 48 1011.2
20180719063418 84 44 0.0 2.0 0.00 0.00 0.00 46 1011.1
20180719062518 83 232 1.0 1.0 0.00 0.00 0.00 49 1011.1
20180719061617 83 311 0.0 0.0 0.00 0.00 0.00 49 1011.1
20180719060716 84 312 0.0 0.0 0.00 0.00 0.00 47 1011.1
20180719055815 84 311 0.0 0.0 0.00 0.00 0.00 47 1011.1
20180719054914 84 311 0.0 0.0 0.00 0.00 0.00 44 1011.1
20180719054013 85 311 0.0 0.0 0.00 0.00 0.00 43 1011.1
20180719053112 86 312 0.0 0.0 0.00 0.00 0.00 42 1011.1
20180719052211 86 312 0.0 0.0 0.00 0.00 0.00 42 1010.8
20180719051310 87 311 0.0 0.0 0.00 0.00 0.00 41 1010.8
20180719050409 88 312 0.0 0.0 0.00 0.00 0.00 40 1010.8
20180719045509 89 311 0.0 0.0 0.00 0.00 0.00 39 1010.8
20180719044608 89 311 0.0 0.0 0.00 0.00 0.00 38 1010.8
20180719043707 90 311 0.0 0.0 0.00 0.00 0.00 36 1010.5
20180719042806 91 312 0.0 0.0 0.00 0.00 0.00 35 1010.5
20180719041905 92 311 0.0 0.0 0.00 0.00 0.00 34 1010.5
20180719041004 93 312 0.0 0.0 0.00 0.00 0.00 32 1010.5
20180719040103 93 312 0.0 0.0 0.00 0.00 0.00 30 1010.1
20180719035202 94 311 0.0 0.0 0.00 0.00 0.00 31 1010.1
20180719034301 94 311 0.0 0.0 0.00 0.00 0.00 29 1010.1
20180719033401 95 312 0.0 0.0 0.00 0.00 0.00 27 1010.1
20180719032500 96 312 0.0 0.0 0.00 0.00 0.00 27 1010.1
20180719031559 96 312 0.0 0.0 0.00 0.00 0.00 25 1009.8
20180719030658 97 312 0.0 1.0 0.00 0.00 0.00 24 1009.8
20180719025757 97 311 0.0 1.0 0.00 0.00 0.00 24 1009.4
20180719024857 98 311 0.0 1.0 0.00 0.00 0.00 24 1009.8
20180719023955 99 311 0.0 1.0 0.00 0.00 0.00 22 1009.8
20180719023054 99 311 0.0 2.0 0.00 0.00 0.00 22 1009.7
20180719022154 100 321 0.0 3.0 0.00 0.00 0.00 22 1009.7
20180719021253 101 294 1.0 3.0 0.00 0.00 0.00 22 1009.7
20180719020351 101 357 1.0 3.0 0.00 0.00 0.00 20 1009.7
20180719015451 103 349 1.0 1.0 0.00 0.00 0.00 20 1009.7
20180719014550 104 347 1.0 2.0 0.00 0.00 0.00 18 1009.7
20180719013649 105 60 1.0 2.0 0.00 0.00 0.00 17 1009.8
20180719012748 106 311 1.0 4.0 0.00 0.00 0.00 17 1009.8
20180719011848 107 347 1.0 4.0 0.00 0.00 0.00 16 1009.8
20180719010947 106 6 1.0 3.0 0.00 0.00 0.00 16 1009.8
20180719010046 106 350 1.0 4.0 0.00 0.00 0.00 17 1009.8
20180719005145 106 37 1.0 3.0 0.00 0.00 0.00 16 1010.1
20180719004244 105 36 2.0 2.0 0.00 0.00 0.00 18 1009.7
20180719003343 105 10 1.0 3.0 0.00 0.00 0.00 16 1010.1
20180719002441 105 44 0.0 4.0 0.00 0.00 0.00 16 1010.1
20180719001540 105 54 1.0 4.0 0.00 0.00 0.00 14 1010.1
20180719000639 105 49 1.0 3.0 0.00 0.00 0.00 15 1010.1
20180718235738 104 4 1.0 3.0 0.00 0.00 0.00 14 1010.4
20180718234837 105 337 1.0 3.0 0.00 0.00 0.00 16 1010.4
20180718233936 103 56 1.0 3.0 0.00 0.00 0.00 20 1010.4
20180718233036 102 338 1.0 3.0 0.00 0.00 0.00 21 1010.4
20180718232135 103 316 1.0 3.0 0.00 0.00 0.00 20 1010.4
20180718231234 103 54 1.0 3.0 0.00 0.00 0.00 20 1010.4
20180718230333 104 321 1.0 3.0 0.00 0.00 0.00 20 1010.8
20180718225432 104 317 1.0 3.0 0.00 0.00 0.00 19 1010.8
20180718224531 105 41 1.0 3.0 0.00 0.00 0.00 17 1010.8
20180718223630 105 1 1.0 2.0 0.00 0.00 0.00 18 1011.1
20180718222730 105 5 1.0 2.0 0.00 0.00 0.00 18 1011.1
20180718221829 105 13 1.0 3.0 0.00 0.00 0.00 16 1011.1
20180718220928 104 330 0.0 3.0 0.00 0.00 0.00 19 1011.4
20180718220027 104 110 1.0 3.0 0.00 0.00 0.00 17 1011.4
20180718215126 104 31 1.0 3.0 0.00 0.00 0.00 17 1011.4
20180718214225 103 333 0.0 4.0 0.00 0.00 0.00 18 1011.8
20180718213324 101 335 1.0 4.0 0.00 0.00 0.00 17 1011.7
20180718212423 101 352 2.0 3.0 0.00 0.00 0.00 18 1011.8
20180718211522 101 318 1.0 3.0 0.00 0.00 0.00 19 1011.8
20180718210621 101 343 1.0 4.0 0.00 0.00 0.00 19 1012.1
20180718205720 100 332 2.0 4.0 0.00 0.00 0.00 21 1012.1
20180718204820 100 316 1.0 3.0 0.00 0.00 0.00 20 1012.1
20180718203919 100 33 1.0 1.0 0.00 0.00 0.00 21 1012.4
20180718203018 101 191 1.0 1.0 0.00 0.00 0.00 20 1012.5
20180718202117 101 328 1.0 2.0 0.00 0.00 0.00 19 1012.8
20180718201216 101 76 1.0 3.0 0.00 0.00 0.00 19 1012.8
20180718200315 100 10 1.0 4.0 0.00 0.00 0.00 20 1012.8
20180718195413 101 329 2.0 4.0 0.00 0.00 0.00 19 1012.8
20180718194513 100 57 1.0 3.0 0.00 0.00 0.00 18 1012.8
20180718193612 100 52 2.0 4.0 0.00 0.00 0.00 18 1013.2
20180718192711 100 42 2.0 4.0 0.00 0.00 0.00 19 1013.2
20180718191810 100 51 1.0 4.0 0.00 0.00 0.00 20 1013.2
20180718190909 99 19 2.0 4.0 0.00 0.00 0.00 22 1013.2
20180718190008 99 350 1.0 4.0 0.00 0.00 0.00 22 1013.2
20180718185108 98 353 1.0 6.0 0.00 0.00 0.00 22 1013.2
20180718184207 98 80 1.0 6.0 0.00 0.00 0.00 19 1013.1
20180718183306 97 326 2.0 5.0 0.00 0.00 0.00 18 1013.1
20180718182405 96 38 2.0 5.0 0.00 0.00 0.00 20 1013.1
20180718181505 95 32 2.0 5.0 0.00 0.00 0.00 22 1013.1
20180718180604 94 335 2.0 5.0 0.00 0.00 0.00 24 1013.5
20180718175702 93 46 2.0 4.0 0.00 0.00 0.00 29 1013.5
20180718174802 92 318 2.0 3.0 0.00 0.00 0.00 29 1013.5
20180718173900 93 328 1.0 3.0 0.00 0.00 0.00 29 1013.5
20180718172959 92 44 0.0 2.0 0.00 0.00 0.00 31 1013.5
20180718172058 92 49 1.0 1.0 0.00 0.00 0.00 30 1013.5
20180718171157 92 38 1.0 1.0 0.00 0.00 0.00 32 1013.5
20180718170256 91 39 0.0 1.0 0.00 0.00 0.00 33 1013.1
20180718165356 91 40 1.0 1.0 0.00 0.00 0.00 32 1013.5
20180718164455 91 349 0.0 1.0 0.00 0.00 0.00 31 1013.5
20180718163554 91 84 1.0 1.0 0.00 0.00 0.00 32 1013.5
20180718162653 91 153 0.0 2.0 0.00 0.00 0.00 33 1013.5
20180718161752 90 148 1.0 2.0 0.00 0.00 0.00 34 1013.5
20180718160851 90 162 1.0 2.0 0.00 0.00 0.00 32 1013.5
20180718155950 90 130 0.0 0.0 0.00 0.00 0.00 34 1013.5
20180718155049 90 130 0.0 0.0 0.00 0.00 0.00 35 1013.5
20180718154148 88 135 0.0 0.0 0.00 0.00 0.00 38 1013.5
20180718153247 87 137 0.0 1.0 0.00 0.00 0.00 41 1013.5
20180718152346 86 136 0.0 1.0 0.00 0.00 0.00 41 1013.5
20180718151445 85 135 1.0 1.0 0.00 0.00 0.00 42 1013.5
20180718150544 84 155 0.0 2.0 0.00 0.00 0.00 44 1013.5
20180718145643 83 153 1.0 2.0 0.00 0.00 0.00 45 1013.5
20180718144742 82 153 1.0 3.0 0.00 0.00 0.00 46 1013.5
20180718143841 81 170 1.0 3.0 0.00 0.00 0.00 48 1013.5
20180718142941 80 155 1.0 2.0 0.00 0.00 0.00 52 1013.5
20180718142040 78 118 1.0 3.0 0.00 0.00 0.00 55 1013.2
20180718141139 77 160 1.0 3.0 0.00 0.00 0.00 57 1013.2
20180718140238 77 145 1.0 3.0 0.00 0.00 0.00 60 1013.2
20180718135338 76 139 1.0 3.0 0.00 0.00 0.00 61 1013.2
20180718134436 75 146 1.0 2.0 0.00 0.00 0.00 62 1013.2
20180718133536 75 132 1.0 1.0 0.00 0.00 0.00 63 1013.2
20180718132635 75 139 0.0 0.0 0.00 0.00 0.00 62 1012.8